Location: Caltech
(34.1382°N, 118.1253°W)
Time: 02:26:56
(UTC-07:00)

Uribyol 2 - Visible Passes

Search period start: 23 August 2014 00:00
Search period end: 02 September 2014 00:00
Orbit: 783 x 798 km, 98.7° (Epoch: 22 August)

Date Brightness Start Highest point End Pass type
(mag) Time Alt. Az. Time Alt. Az. Time Alt. Az.
23 Aug ? 02:05:38 10° NE 02:06:36 14° NE 02:06:36 14° NE visible
23 Aug ? 03:44:15 10° N 03:47:19 30° NNW 03:47:19 30° NNW visible
24 Aug ? 03:14:36 10° N 03:17:31 35° N 03:17:31 35° N visible
25 Aug ? 02:45:20 10° NNE 02:47:42 26° NE 02:47:42 26° NE visible
25 Aug ? 04:26:23 10° NNW 04:28:25 15° NW 04:28:25 15° NW visible
26 Aug ? 02:16:34 10° NE 02:17:53 16° NE 02:17:53 16° NE visible
26 Aug ? 03:55:52 10° N 03:58:37 24° NW 03:58:37 24° NW visible
27 Aug ? 03:26:02 10° N 03:28:48 31° N 03:28:48 31° N visible
28 Aug ? 02:56:38 10° NNE 02:58:59 27° NNE 02:58:59 27° NNE visible
28 Aug ? 04:38:41 10° NW 04:39:42 12° NW 04:39:42 12° NW visible
29 Aug ? 02:27:39 10° NNE 02:29:09 18° NE 02:29:09 18° NE visible
29 Aug ? 04:07:35 10° NNW 04:09:53 20° NW 04:09:53 20° NW visible
30 Aug ? 03:37:33 10° N 03:40:04 27° NNW 03:40:04 27° NNW visible
31 Aug ? 03:07:59 10° NNE 03:10:15 27° NNE 03:10:15 27° NNE visible
01 Sep ? 02:38:49 10° NNE 02:40:26 20° NE 02:40:26 20° NE visible
01 Sep ? 04:19:25 10° NNW 04:21:09 16° NW 04:21:09 16° NW visible
